Weather in Apostolove

Ukraine / Dnipropetrovsk Region     47°39′33″N   33°44′03″E
temp.,
°C
wind,
m/s
gust,
m/s
humid.,
%
clouds,
%
prec.,
mm/h
press.,
hPa
HPBL,
m
20 april, tue
tue2000:00+9ne3474100 0.1 101261
03:00+9ne3578100 0.1 1010105
06:00+8nne3678100 0.0 1008134
09:00+9ne3581100 0.4 1007392
12:00+9nne5789100 1.9 1006456
15:00+9n51088100 3.9 1005610
18:00+9wnw3889100 2.3 1005409
21:00+9wnw4107999 2.6 1007215
21 april, wed
wed2100:00+6wsw49825 0.0 1009145
03:00+6w4883100 0.0 1011136
06:00+5wsw36855 0.0 101292
09:00+11wsw466586 0.0 1013446
12:00+14w6657100 0.6 10141805
15:00+14w57525 0.9 10141537
18:00+13wsw366358 0.5 1015184
21:00+10sw47775 0.8 1017100
22 april, thu
thu2200:00+8sw49865 0.1 1017175
03:00+7sw48925 0.1 1018142
06:00+6ssw36915 0.0 1019100
09:00+13ssw45675 0.0 1020452
12:00+17ssw454756 0.6 10201711
15:00+16ssw3550100 0.8 1019874
18:00+16sw56495 0.1 10201113
21:00+11ssw48735 0.1 1021125
23 april, fri
fri2300:00+9ssw49840 0.0 1021168
03:00+8ssw410875 0.0 1021203
06:00+7s4109069 0.0 1021196
09:00+11s5107379 0.0 1021415
12:00+17ssw78455 0.0 10201540
15:00+18ssw894192 0.0 10182662
18:00+16ssw79535 0.0 10171181
21:00+11ssw512685 0.0 1018345
24 april, sat
sat2400:00+9ssw41085100 0.0 1017319
03:00+6nnw7984100 0.0 1017446
06:00+6nw5108213 0.7 1019743
09:00+9w68660 0.7 1019949
12:00+12wnw8104254 0.0 10192215
15:00+11wnw910320 0.0 10201902
18:00+10nw79395 0.0 10212030
21:00+7nw48463 0.0 1022157